Weather in Toburdanovo

Russia / Chuvash Republic     55°21′40″N   47°35′31″E
temp.,
°C
wind,
m/s
gust,
m/s
humid.,
%
clouds,
%
prec.,
mm/h
press.,
hPa
HPBL,
m
9 march, tue
tue900:00−12wnw459477 0.1 100489
03:00−15w349638 0.1 100642
06:00−17w349613 0.0 100851
09:00−13w359434 0.0 1009235
12:00−10w348894 0.0 1009505
15:00−9nw458997 0.1 1010555
18:00−12nw359494 0.1 1011102
21:00−12nnw499595 0.3 1012272
10 march, wed
wed1000:00−16nw499879 0.0 1012177
03:00−17nnw5109585 0.1 1013287
06:00−18nnw61095100 0.1 1014337
09:00−20nnw61096100 0.1 1016351
12:00−19nnw61094100 0.1 1018424
15:00−18nnw6991100 0.1 1019541
18:00−20nnw51094100 0.0 1021329
21:00−23nnw489672 0.1 1023133
11 march, thu
thu1100:00−24nw47987 0.0 102492
03:00−23wnw489943 0.0 1025162
06:00−23wnw41099100 0.0 1025188
09:00−19wnw6109495 0.1 1024321
12:00−15nw61091100 0.3 1024566
15:00−13nw5990100 0.3 1025535
18:00−13wnw489599 0.0 1025156
21:00−12nw4109696 0.1 1027251
12 march, fri
fri1200:00−15nw489791 0.0 1028142
03:00−17wnw479769 0.0 102990
06:00−19w45980 0.0 103187
09:00−15wnw47915 0.0 1032254
12:00−10w488433 0.0 1032444
15:00−9w588041 0.0 1032518
18:00−14w448756 0.0 103258
21:00−16wsw449130 0.0 103369
13 march, sat
sat1300:00−16wsw47850 0.0 103390
03:00−17sw34830 0.0 103371
06:00−17ssw34910 0.0 103456
09:00−12ssw48860 0.0 1033275
12:00−8ssw510780 0.0 1032582
15:00−6ssw59790 0.0 1030820
18:00−10s488710 0.0 1029129
21:00−12ssw5128653 0.0 1028333